Location: Gleizolles
(44.4833°N, 6.7667°E)
Time: 13:46:23
(UTC+00:00)

Vanguard 1 - Pass Details

Date: 03 July 2024
Orbit: 650 x 3826 km, 34.3° (Epoch: 15 July)

Event Time Altitude Azimuth Distance (km) Brightness Sun altitude
Rises 09:17:27 0° 249° (WSW) 6,997 14.2 54.2°
Reaches altitude 10° 09:22:59 10° 244° (WSW) 5,501 13.8 55.1°
Maximum altitude 09:36:30 46° 178° (S) 2,216 12.9 57.2°
Drops below altitude 10° 09:44:03 10° 108° (ESE) 3,138 13.3 58.3°
Sets 09:46:20 0° 101° (E) 3,835 13.5 58.7°
